Location: Unspecified
(0.0000°N, 0.0000°E)
Time: 16:52:33
(UTC+00:00)

ISS - Visible Passes

Search period start: 17 January 2019 00:00
Search period end: 27 January 2019 00:00
Orbit: 404 x 407 km, 51.6° (Epoch: 18 January)

Date Brightness Start Highest point End Pass type
(mag) Time Alt. Az. Time Alt. Az. Time Alt. Az.
18 Jan -1.7 05:20:23 10° N 05:23:03 23° NE 05:25:45 10° ESE visible
20 Jan -3.9 05:13:43 22° NW 05:15:42 76° SW 05:18:58 10° SSE visible
21 Jan -2.0 04:24:37 30° E 04:24:37 30° E 04:26:53 10° ESE visible
22 Jan -2.0 05:08:10 18° WSW 05:08:18 18° SW 05:10:37 10° S visible
23 Jan -1.0 04:18:56 15° SSE 04:18:56 15° SSE 04:19:36 10° SSE visible
